Presure
138 157 107 126 123 150 140 174 174 149 177 138 166 191 132 165 173 194 208 188 204 169 192 187 158 187 126 159 177 202 217 172 194 153 176 159 167 193 191 197 186 190 191 166 193
173 168 155 139 152 134 115 154 132 145 186 215 140 188 171 152 183 193 201 205 174 198 173 192 194 217 195 180 186 160 183 186 179 180 197 196 155 166 199 190 192 195 190 197 198
184 131 142 110 141 191 118 127 129 198 130 203 201 169 167 192 169 197 132 144 206 211 203 193 212 204 209 213 184 184 195 188 189 210 192 197 186 195 195 193 194 190 191 192 185
156 157 162 209 147 164 136 188 182 174 143 213 188 185 195 170 194 215 203 210 195 205 204 210 181 213 196 206 179 185 210 202 188 191 203 204 112 193 182 196 195 200 193 200 209
184 171 190 116 196 181 128 177 160 164 124 199 211 159 185 203 194 203 214 216 201 198 201 204 208 180 205 205 209 201 197 196 185 195 193 212 200 200 196 193 189 198 209 194 199
159 135 115 154 164 130 191 193 191 127 143 206 148 195 172 211 207 227 206 205 205 203 210 219 214 212 227 218 201 214 205 195 197 190 195 200 192 216 201 204 193 150 207 210 210
144 206 200 202 202 195 196 161 132 141 206 226 178 183 179 174 218 217 198 215 231 255 248 244 236 225 225 210 212 201 206 191 191 191 187 204 226 201 211 214 208 208 209 197 201
174 164 190 135 148 163 158 193 207 222 230 167 220 219 221 195 223 215 210 225 255 261 256 264 252 243 236 229 213 227 211 216 204 196 204 194 194 213 212 207 201 200 192 202 202
197 156 133 195 156 210 173 151 204 203 168 236 186 212 207 202 219 220 221 233 281 282 260 281 232 225 241 226 219 227 213 209 212 208 199 195 203 207 200 198 198 203 203 202 201
186 212 212 190 150 204 214 160 217 160 212 222 216 215 205 221 221 222 224 262 282 273 289 266 281 266 260 240 232 206 217 204 200 200 206 202 203 201 196 200 200 197 200 186 178
206 207 156 217 224 179 199 221 229 232 207 227 219 222 231 235 228 233 257 274 311 305 287 271 273 267 251 238 233 223 212 205 198 221 201 200 216 67 193 195 199 201 205 223 220
207 132 159 156 181 153 221 222 218 222 220 228 227 240 227 239 247 268 333 318 305 295 277 255 257 256 234 223 215 220 213 215 198 209 200 215 218 207 206 201 207 201 195 221 214
180 230 227 231 222 206 204 218 217 237 231 236 237 225 248 227 265 260 326 310 290 292 286 268 262 251 249 214 220 218 219 215 205 215 239 213 215 208 204 205 201 204 210 222 235
230 204 231 231 231 196 220 227 220 230 232 240 225 245 225 250 268 307 305 297 291 276 270 268 256 248 248 242 233 226 210 217 208 206 220 214 215 205 204 202 208 217 221 208 198
230 141 221 240 223 215 230 238 236 250 258 224 266 258 253 270 304 311 299 283 278 276 267 260 276 249 241 239 235 230 224 215 219 218 213 217 214 206 209 208 220 226 216 222 228
125 233 193 167 227 237 227 241 249 244 250 269 245 253 313 313 315 305 306 293 274 276 266 272 258 261 255 235 231 222 231 225 212 213 217 219 216 220 211 209 213 224 224 239 239
144 230 223 229 223 235 233 223 258 240 249 254 278 267 313 308 320 320 317 314 300 279 273 265 260 254 261 239 242 231 226 229 223 226 218 216 222 230 201 214 217 224 175 248 286
225 220 227 227 245 235 219 218 250 263 263 277 260 276 326 330 338 335 343 310 300 296 278 273 260 253 257 251 251 243 232 226 226 225 222 218 211 222 224 233 230 180 234 268 347
241 245 221 221 219 265 241 271 262 245 252 266 310 334 328 326 335 321 319 333 335 308 305 299 271 252 254 251 250 245 240 232 231 232 224 217 223 216 226 230 219 233 263 293 308
225 247 255 234 231 251 268 284 263 249 288 313 330 327 327 323 322 317 307 309 239 330 319 281 308 261 249 253 251 244 242 242 239 235 228 229 233 235 230 219 211 249 284 297 297
230 224 231 251 243 261 265 265 270 298 321 327 325 321 314 307 298 300 215 288 297 308 245 305 304 270 259 247 250 251 243 243 230 231 237 225 235 240 228 243 236 253 270 288 258
231 241 256 244 275 282 273 278 311 320 327 325 314 299 291 294 341 349 352 364 272 286 302 332 288 300 271 260 249 249 250 250 244 231 238 244 239 230 240 238 223 256 158 279 277
257 256 239 258 271 275 279 308 319 317 286 304 294 302 358 376 377 373 150 349 374 311 276 303 310 275 290 288 252 244 245 248 247 248 247 239 232 249 243 231 236 242 268 189 263
259 271 273 273 272 285 309 318 313 303 295 295 444 427 415 416 415 414 428 349 361 346 319 278 316 282 283 277 258 247 247 240 240 241 242 242 247 240 252 236 241 243 263 267 238
274 274 269 270 300 308 312 303 299 287 421 412 392 389 377 373 396 396 409 343 329 336 323 301 286 302 286 276 266 252 249 246 240 239 233 232 237 251 236 234 260 245 259 247 224
265 274 281 292 305 298 296 290 322 361 379 366 351 343 355 369 370 392 404 321 308 328 340 320 272 307 289 277 267 261 249 246 247 243 235 237 235 235 234 242 265 245 253 237 220
279 271 288 297 300 290 285 317 324 359 351 347 332 326 326 341 362 386 401 324 305 316 316 329 285 295 283 285 272 265 258 250 248 248 245 242 254 239 222 266 254 246 252 230 218
Wind_Speed
64 56 46 58 47 72 71 57 61 65 55 51 62 57 60 56 61 56 57 57 57 61 61 61 63 67 63 70 72 53 58 85 70 86 89 69 79 79 76 73 73 75 76 75 76
66 64 70 50 55 66 42 73 63 59 69 66 68 63 72 67 68 63 63 62 70 63 58 64 63 57 65 76 65 66 63 65 69 75 78 78 61 72 77 74 77 79 75 79 80
69 70 73 44 73 74 47 64 72 69 59 67 69 68 61 70 76 74 64 63 63 64 64 66 63 60 61 59 66 70 61 68 68 73 72 80 80 81 80 81 80 77 78 79 77
67 69 64 82 77 62 76 74 74 67 79 72 69 68 76 72 77 77 78 71 69 68 66 66 71 66 64 61 74 69 53 59 68 57 69 80 34 80 75 83 88 86 84 82 80
78 73 85 45 81 72 69 74 72 71 65 70 75 79 80 78 77 74 71 71 73 74 75 71 70 65 70 63 63 61 59 62 68 56 74 81 80 87 82 87 82 85 79 81 78
77 55 49 77 80 73 80 79 80 75 69 76 84 78 74 75 79 68 76 74 74 79 79 78 75 73 68 66 66 63 63 61 61 67 63 67 62 81 88 90 83 58 77 73 72
71 90 86 83 80 81 79 69 69 83 75 84 85 80 82 76 69 72 79 76 81 82 78 80 72 71 71 70 68 66 64 64 65 66 66 65 63 68 73 78 78 78 73 71 74
73 74 85 69 80 74 67 76 80 84 85 71 68 73 70 77 80 77 79 85 91 82 78 75 69 68 72 73 72 71 65 68 68 69 67 62 63 66 71 73 72 76 72 76 75
93 80 73 81 83 87 77 77 78 81 73 76 75 67 68 75 82 86 83 87 85 82 75 73 65 65 71 72 73 69 65 63 65 66 66 63 66 57 68 71 75 77 76 78 73
87 93 92 83 68 85 84 85 82 84 76 74 71 74 74 84 87 85 83 89 76 77 70 65 71 69 69 73 72 71 63 63 62 67 70 67 67 65 73 74 76 75 78 71 59
94 95 74 91 91 86 84 83 88 88 76 86 79 87 88 88 87 89 92 77 63 62 64 63 61 62 67 68 67 63 63 66 65 70 67 64 68 22 73 72 77 81 83 80 76
96 74 84 78 79 72 85 87 81 85 88 90 91 94 88 91 92 88 55 56 57 58 62 60 58 64 65 66 65 64 63 65 68 69 66 74 74 77 79 80 83 78 67 72 62
91 105 101 101 98 90 90 84 83 96 91 96 94 83 90 80 84 81 51 47 52 56 59 62 62 63 65 67 65 64 65 69 67 68 82 70 73 79 80 78 79 75 73 69 75
107 96 105 101 102 92 87 96 90 97 97 96 85 93 80 87 83 62 52 50 47 55 59 60 64 64 64 68 69 66 64 67 67 66 74 70 75 76 82 78 76 74 68 52 52
104 82 98 108 95 85 102 106 103 102 98 82 101 91 85 83 68 59 56 53 51 52 57 59 54 64 63 67 65 66 69 68 71 71 68 71 71 78 84 78 80 76 58 55 60
65 104 95 86 97 102 96 104 99 96 90 92 86 88 75 67 64 59 55 57 55 52 53 50 59 58 65 67 63 64 74 77 72 72 69 71 71 81 78 73 62 62 58 63 59
79 102 94 95 91 98 94 87 96 88 89 88 94 87 71 65 65 60 54 56 62 60 54 56 58 62 57 69 70 70 74 75 71 72 73 72 71 76 61 70 54 64 39 63 67
99 93 98 96 108 93 87 87 92 91 89 83 83 81 69 59 55 54 54 52 55 56 58 56 62 63 60 63 67 69 75 75 70 68 68 72 68 68 73 72 57 42 48 61 30
107 110 92 88 87 98 96 92 91 87 86 86 78 67 61 56 50 48 48 46 51 55 57 63 64 63 60 62 62 67 76 77 74 70 72 70 67 60 67 53 46 56 64 45 32
95 98 93 95 101 99 97 93 89 86 85 76 68 64 59 53 49 45 47 45 37 48 52 56 55 65 63 62 63 67 71 72 76 73 74 72 68 66 58 49 52 60 46 34 36
96 94 97 95 99 99 95 91 88 82 76 71 66 61 57 52 48 46 32 49 45 47 35 57 53 66 66 66 64 63 69 69 69 67 70 67 66 65 47 58 48 45 30 29 34
96 99 100 99 91 87 87 86 79 74 69 65 62 58 54 52 51 50 48 43 49 49 48 51 55 54 70 69 66 62 60 63 70 67 65 63 64 57 52 43 44 34 33 30 35
97 92 91 93 84 84 82 78 73 70 66 65 60 56 54 45 42 42 17 42 40 50 53 49 54 59 55 61 68 65 62 59 57 55 52 55 53 54 40 38 35 28 27 38 51
89 76 77 79 79 80 75 71 68 67 65 62 22 22 22 20 20 23 25 40 36 45 51 52 50 60 60 65 71 68 66 61 57 52 50 50 49 39 34 36 33 28 32 41 51
74 73 74 74 74 71 68 66 65 64 26 18 17 18 19 22 19 20 24 35 38 43 47 53 52 59 61 64 68 69 67 62 58 54 51 46 44 37 35 36 26 31 35 51 51
68 71 70 70 66 64 62 62 59 41 23 15 18 19 15 17 19 21 24 40 43 38 38 55 55 57 63 65 67 69 68 63 62 61 56 53 45 34 40 29 30 35 42 57 52
65 64 66 63 61 59 59 55 52 30 25 19 17 21 15 13 16 22 36 46 46 46 54 54 56 55 62 64 67 67 68 68 64 60 57 52 49 38 45 27 36 37 46 58 54
Wind_Direction
266 284 255 275 271 283 273 292 286 288 287 284 279 289 281 281 275 284 287 278 276 274 269 272 265 267 262 270 259 263 269 258 263 269 263 266 266 271 273 271 270 271 271 267 275
289 281 276 279 286 277 282 288 292 271 292 298 295 290 284 279 283 286 285 284 282 270 279 264 272 273 262 260 256 265 260 260 260 263 266 268 269 267 272 270 271 271 273 275 277
292 275 273 265 271 292 280 286 281 296 293 292 293 276 266 290 283 284 285 283 280 283 276 271 276 268 269 271 256 259 261 260 261 262 265 266 265 269 270 271 270 272 275 276 274
274 276 280 298 278 286 276 296 293 283 287 292 287 280 286 281 286 287 282 282 279 278 274 276 276 278 257 265 260 258 263 257 258 261 266 263 249 267 266 270 273 272 275 276 277
293 284 295 281 294 287 281 289 294 294 296 289 286 270 287 278 282 281 281 280 275 274 275 271 272 275 267 265 266 255 255 256 257 256 256 259 260 260 265 267 269 274 273 276 276
278 279 271 284 286 282 290 294 292 293 292 287 275 284 281 283 276 283 272 272 275 273 274 271 269 270 270 267 261 266 259 256 257 257 262 258 264 262 263 262 269 270 270 270 272
278 295 291 294 293 290 292 279 293 279 290 284 284 278 281 276 288 286 272 280 285 284 276 271 266 264 264 261 263 260 261 253 258 257 256 270 262 270 263 262 265 267 269 268 271
284 280 289 282 282 291 293 290 290 293 291 278 289 292 291 276 299 288 281 290 294 284 278 272 263 261 258 258 259 259 260 258 260 260 266 263 268 263 262 265 265 266 268 271 273
293 281 278 285 278 291 293 273 290 295 291 298 283 283 281 278 292 291 286 292 285 277 277 268 260 259 255 254 257 255 254 254 258 261 260 262 265 262 258 260 262 264 270 271 274
286 292 291 289 291 290 292 288 292 282 288 295 289 290 280 293 290 287 287 295 283 279 267 263 257 254 254 251 251 249 254 254 255 259 260 259 257 257 260 258 262 266 268 270 272
290 290 288 285 285 286 290 292 295 296 285 297 293 294 296 294 292 292 296 288 271 265 258 258 255 250 245 244 249 250 250 252 252 256 257 259 249 248 260 264 266 267 269 274 276
288 279 282 287 289 293 291 292 291 294 295 296 295 295 294 296 296 296 279 272 266 260 255 257 252 247 245 245 248 249 250 251 250 255 254 253 255 252 254 259 262 264 264 274 276
286 288 288 288 288 290 291 290 291 296 294 295 294 292 297 290 296 294 276 267 262 259 253 250 248 246 244 247 246 247 248 249 251 253 246 256 251 251 255 259 261 264 271 274 277
285 282 285 287 289 290 289 293 292 293 294 295 293 296 290 296 297 290 278 271 259 254 252 248 246 245 243 240 241 244 248 251 250 252 249 251 244 250 256 260 262 267 271 264 268
282 278 284 285 289 289 291 293 293 294 293 291 296 296 296 297 290 280 275 269 262 252 249 246 250 243 241 241 242 240 244 248 249 251 249 246 243 250 255 261 262 266 270 279 278
289 282 280 285 287 289 290 292 293 293 294 295 294 297 290 288 283 278 267 259 258 251 244 244 240 242 239 239 238 240 239 240 246 247 247 248 249 249 254 258 264 269 276 281 277
282 282 283 285 287 289 290 291 294 293 294 296 295 295 289 286 279 274 266 257 254 249 243 237 235 236 238 237 238 237 239 238 240 239 243 247 247 249 250 261 263 273 261 281 284
279 282 283 285 289 289 288 290 294 295 297 295 294 295 285 280 273 269 263 257 252 251 241 237 232 232 235 235 235 234 235 240 238 238 241 242 249 252 258 264 268 253 274 286 257
277 279 283 285 287 292 291 295 294 294 294 296 291 286 284 282 275 270 265 258 253 248 242 240 229 230 235 233 233 232 233 238 239 239 241 247 249 250 261 258 260 279 282 286 235
280 282 283 285 286 290 291 293 293 294 293 291 287 286 284 282 277 268 264 258 253 249 238 237 233 225 230 235 232 232 234 237 238 239 243 246 250 253 256 253 258 276 278 271 232
279 281 283 285 288 291 291 293 293 292 291 288 287 286 284 281 275 265 253 254 248 243 240 230 229 226 225 230 234 232 234 236 239 241 241 246 252 254 258 268 268 271 272 251 221
280 282 285 287 288 289 291 290 290 291 289 288 286 287 284 280 272 266 259 249 245 239 236 230 226 225 224 225 230 233 232 235 239 243 246 248 252 253 259 262 250 265 234 224 214
279 282 286 287 288 288 290 291 291 291 291 289 289 287 282 274 266 258 253 244 231 233 236 231 221 225 223 222 226 232 234 235 237 239 243 245 248 257 254 240 245 242 239 232 195
277 279 283 284 287 289 291 291 292 292 291 290 279 274 269 259 249 236 235 231 222 222 227 232 220 221 218 216 222 230 232 234 238 240 242 245 247 240 248 230 232 232 222 207 194
279 281 284 285 289 291 292 294 293 292 300 294 285 279 265 256 243 230 225 216 214 216 220 222 222 217 217 217 222 227 232 232 235 238 238 236 242 251 231 231 235 222 217 197 199
280 282 285 288 290 293 295 295 300 304 302 289 280 274 289 264 245 222 201 208 218 206 208 216 222 215 215 216 219 224 228 232 231 232 234 238 234 222 237 236 226 213 208 197 203
282 285 287 290 292 294 295 303 303 298 293 287 263 266 260 271 242 214 180 197 210 204 213 214 215 214 216 215 218 220 224 229 233 234 236 239 243 232 221 230 216 213 205 200 208